Year,Month,Day,Hour,Minute,Value (Times are PST for temperature in C)
2015,06,09,00,00,16.40
2015,06,09,00,01,16.30
2015,06,09,00,02,16.30
2015,06,09,00,03,16.30
2015,06,09,00,04,16.30
2015,06,09,00,05,16.30
2015,06,09,00,06,16.20
2015,06,09,00,07,16.20
2015,06,09,00,08,16.20
2015,06,09,00,09,16.20
2015,06,09,00,10,16.20
2015,06,09,00,11,16.10
2015,06,09,00,12,16.10
2015,06,09,00,13,16.10
2015,06,09,00,14,16.10
2015,06,09,00,15,16.10
2015,06,09,00,16,16.10
2015,06,09,00,17,16.10
2015,06,09,00,18,16.10
2015,06,09,00,19,16.10
2015,06,09,00,20,16.10
2015,06,09,00,21,16.10
2015,06,09,00,22,16.10
2015,06,09,00,23,16.10
2015,06,09,00,24,16.10
2015,06,09,00,25,16.10
2015,06,09,00,26,16.10
2015,06,09,00,27,16.10
2015,06,09,00,28,16.00
2015,06,09,00,29,16.00
2015,06,09,00,30,16.00
2015,06,09,00,31,15.90
2015,06,09,00,32,15.90
2015,06,09,00,33,15.90
2015,06,09,00,34,15.80
2015,06,09,00,35,15.80
2015,06,09,00,36,15.80
2015,06,09,00,37,15.80
2015,06,09,00,38,15.70
2015,06,09,00,39,15.70
2015,06,09,00,40,15.70
2015,06,09,00,41,15.60
2015,06,09,00,42,15.60
2015,06,09,00,43,15.60
2015,06,09,00,44,15.60
2015,06,09,00,45,15.60
2015,06,09,00,46,15.60
2015,06,09,00,47,15.60
2015,06,09,00,48,15.60
2015,06,09,00,49,15.60
2015,06,09,00,50,15.50
2015,06,09,00,51,15.50
2015,06,09,00,52,15.40
2015,06,09,00,53,15.40
2015,06,09,00,54,15.40
2015,06,09,00,55,15.40
2015,06,09,00,56,15.40
2015,06,09,00,57,15.30
2015,06,09,00,58,15.30
2015,06,09,00,59,15.30
2015,06,09,01,00,15.30
2015,06,09,01,01,15.20
2015,06,09,01,02,15.20
2015,06,09,01,03,15.20
2015,06,09,01,04,15.10
2015,06,09,01,05,15.10
2015,06,09,01,06,15.10
2015,06,09,01,07,15.10
2015,06,09,01,08,15.10
2015,06,09,01,09,15.10
2015,06,09,01,10,15.00
2015,06,09,01,11,15.00
2015,06,09,01,12,15.00
2015,06,09,01,13,15.00
2015,06,09,01,14,15.00
2015,06,09,01,15,15.00
2015,06,09,01,16,15.00
2015,06,09,01,17,15.00
2015,06,09,01,18,15.00
2015,06,09,01,19,15.00
2015,06,09,01,20,15.00
2015,06,09,01,21,15.10
2015,06,09,01,22,15.10
2015,06,09,01,23,15.10
2015,06,09,01,24,15.20
2015,06,09,01,25,15.20
2015,06,09,01,26,15.20
2015,06,09,01,27,15.20
2015,06,09,01,28,15.20
2015,06,09,01,29,15.20
2015,06,09,01,30,15.20
2015,06,09,01,31,15.20
2015,06,09,01,32,15.20
2015,06,09,01,33,15.30
2015,06,09,01,34,15.30
2015,06,09,01,35,15.30
2015,06,09,01,36,15.30
2015,06,09,01,37,15.30
2015,06,09,01,38,15.30
2015,06,09,01,39,15.30
2015,06,09,01,40,15.30
2015,06,09,01,41,15.30
2015,06,09,01,42,15.30
2015,06,09,01,43,15.30
2015,06,09,01,44,15.30
2015,06,09,01,45,15.30
2015,06,09,01,46,15.30
2015,06,09,01,47,15.30
2015,06,09,01,48,15.30
2015,06,09,01,49,15.30
2015,06,09,01,50,15.30
2015,06,09,01,51,15.30
2015,06,09,01,52,15.30
2015,06,09,01,53,15.30
2015,06,09,01,54,15.20
2015,06,09,01,55,15.20
2015,06,09,01,56,15.20
2015,06,09,01,57,15.20
2015,06,09,01,58,15.20
2015,06,09,01,59,15.10
2015,06,09,02,00,15.10
2015,06,09,02,01,15.00
2015,06,09,02,02,14.90
2015,06,09,02,03,14.90
2015,06,09,02,04,14.80
2015,06,09,02,05,14.80
2015,06,09,02,06,14.80
2015,06,09,02,07,14.80
2015,06,09,02,08,14.70
2015,06,09,02,09,14.60
2015,06,09,02,10,14.50
2015,06,09,02,11,14.40
2015,06,09,02,12,14.30
2015,06,09,02,13,14.30
2015,06,09,02,14,14.30
2015,06,09,02,15,14.30
2015,06,09,02,16,14.30
2015,06,09,02,17,14.30
2015,06,09,02,18,14.20
2015,06,09,02,19,14.20
2015,06,09,02,20,14.10
2015,06,09,02,21,14.10
2015,06,09,02,22,14.00
2015,06,09,02,23,14.00
2015,06,09,02,24,14.00
2015,06,09,02,25,14.00
2015,06,09,02,26,14.00
2015,06,09,02,27,14.00
2015,06,09,02,28,14.00
2015,06,09,02,29,13.90
2015,06,09,02,30,13.90
2015,06,09,02,31,13.90
2015,06,09,02,32,13.90
2015,06,09,02,33,13.80
2015,06,09,02,34,13.80
2015,06,09,02,35,13.80
2015,06,09,02,36,13.80
2015,06,09,02,37,13.80
2015,06,09,02,38,13.70
2015,06,09,02,39,13.70
2015,06,09,02,40,13.70
2015,06,09,02,41,13.60
2015,06,09,02,42,13.50
2015,06,09,02,43,13.50
2015,06,09,02,44,13.40
2015,06,09,02,45,13.40
2015,06,09,02,46,13.40
2015,06,09,02,47,13.40
2015,06,09,02,48,13.40
2015,06,09,02,49,13.40
2015,06,09,02,50,13.40
2015,06,09,02,51,13.50
2015,06,09,02,52,13.50
2015,06,09,02,53,13.60
2015,06,09,02,54,13.60
2015,06,09,02,55,13.70
2015,06,09,02,56,13.70
2015,06,09,02,57,13.70
2015,06,09,02,58,13.80
2015,06,09,02,59,13.80
2015,06,09,03,00,13.80
2015,06,09,03,01,13.80
2015,06,09,03,02,13.80
2015,06,09,03,03,13.80
2015,06,09,03,04,13.80
2015,06,09,03,05,13.80
2015,06,09,03,06,13.70
2015,06,09,03,07,13.70
2015,06,09,03,08,13.60
2015,06,09,03,09,13.50
2015,06,09,03,10,13.50
2015,06,09,03,11,13.40
2015,06,09,03,12,13.40
2015,06,09,03,13,13.30
2015,06,09,03,14,13.30
2015,06,09,03,15,13.30
2015,06,09,03,16,13.20
2015,06,09,03,17,13.20
2015,06,09,03,18,13.20
2015,06,09,03,19,13.10
2015,06,09,03,20,13.10
2015,06,09,03,21,13.10
2015,06,09,03,22,13.00
2015,06,09,03,23,13.00
2015,06,09,03,24,13.00
2015,06,09,03,25,12.90
2015,06,09,03,26,12.90
2015,06,09,03,27,12.90
2015,06,09,03,28,12.90
2015,06,09,03,29,12.80
2015,06,09,03,30,12.80
2015,06,09,03,31,12.80
2015,06,09,03,32,12.80
2015,06,09,03,33,12.80
2015,06,09,03,34,12.70
2015,06,09,03,35,12.70
2015,06,09,03,36,12.70
2015,06,09,03,37,12.70
2015,06,09,03,38,12.60
2015,06,09,03,39,12.60
2015,06,09,03,40,12.60
2015,06,09,03,41,12.50
2015,06,09,03,42,12.50
2015,06,09,03,43,12.50
2015,06,09,03,44,12.50
2015,06,09,03,45,12.40
2015,06,09,03,46,12.40
2015,06,09,03,47,12.40
2015,06,09,03,48,12.40
2015,06,09,03,49,12.40
2015,06,09,03,50,12.30
2015,06,09,03,51,12.30
2015,06,09,03,52,12.30
2015,06,09,03,53,12.30
2015,06,09,03,54,12.30
2015,06,09,03,55,12.30
2015,06,09,03,56,12.30
2015,06,09,03,57,12.30
2015,06,09,03,58,12.30
2015,06,09,03,59,12.30
2015,06,09,04,00,12.20
2015,06,09,04,01,12.20
2015,06,09,04,02,12.20
2015,06,09,04,03,12.20
2015,06,09,04,04,12.20
2015,06,09,04,05,12.20
2015,06,09,04,06,12.10
2015,06,09,04,07,12.10
2015,06,09,04,08,12.10
2015,06,09,04,09,12.10
2015,06,09,04,10,12.10
2015,06,09,04,11,12.00
2015,06,09,04,12,12.00
2015,06,09,04,13,12.10
2015,06,09,04,14,12.00
2015,06,09,04,15,12.00
2015,06,09,04,16,12.00
2015,06,09,04,17,12.00
2015,06,09,04,18,11.90
2015,06,09,04,19,11.90
2015,06,09,04,20,11.90
2015,06,09,04,21,11.90
2015,06,09,04,22,11.90
2015,06,09,04,23,11.80
2015,06,09,04,24,11.80
2015,06,09,04,25,11.80
2015,06,09,04,26,11.80
2015,06,09,04,27,11.80
2015,06,09,04,28,11.80
2015,06,09,04,29,11.80
2015,06,09,04,30,11.80
2015,06,09,04,31,11.90
2015,06,09,04,32,11.90
2015,06,09,04,33,11.90
2015,06,09,04,34,11.90
2015,06,09,04,35,12.00
2015,06,09,04,36,12.00
2015,06,09,04,37,12.00
2015,06,09,04,38,12.00
2015,06,09,04,39,12.00
2015,06,09,04,40,12.00
2015,06,09,04,41,12.00
2015,06,09,04,42,12.00
2015,06,09,04,43,12.10
2015,06,09,04,44,12.10
2015,06,09,04,45,12.10
2015,06,09,04,46,12.10
2015,06,09,04,47,12.10
2015,06,09,04,48,12.10
2015,06,09,04,49,12.10
2015,06,09,04,50,12.10
2015,06,09,04,51,12.10
2015,06,09,04,52,12.10
2015,06,09,04,53,12.10
2015,06,09,04,54,12.10
2015,06,09,04,55,12.10
2015,06,09,04,56,12.20
2015,06,09,04,57,12.20
2015,06,09,04,58,12.20
2015,06,09,04,59,12.20
2015,06,09,05,00,12.20
2015,06,09,05,01,12.20
2015,06,09,05,02,12.10
2015,06,09,05,03,12.10
2015,06,09,05,04,12.10
2015,06,09,05,05,12.10
2015,06,09,05,06,12.10
2015,06,09,05,07,12.10
2015,06,09,05,08,12.10
2015,06,09,05,09,12.10
2015,06,09,05,10,12.10
2015,06,09,05,11,12.10
2015,06,09,05,12,12.10
2015,06,09,05,13,12.10
2015,06,09,05,14,12.10
2015,06,09,05,15,12.10
2015,06,09,05,16,12.10
2015,06,09,05,17,12.10
2015,06,09,05,18,12.00
2015,06,09,05,19,12.00
2015,06,09,05,20,12.00
2015,06,09,05,21,12.00
2015,06,09,05,22,11.90
2015,06,09,05,23,11.90
2015,06,09,05,24,11.90
2015,06,09,05,25,11.90
2015,06,09,05,26,11.90
2015,06,09,05,27,12.00
2015,06,09,05,28,12.00
2015,06,09,05,29,12.00
2015,06,09,05,30,12.00
2015,06,09,05,31,12.00
2015,06,09,05,32,12.00
2015,06,09,05,33,12.00
2015,06,09,05,34,12.10
2015,06,09,05,35,12.10
2015,06,09,05,36,12.10
2015,06,09,05,37,12.10
2015,06,09,05,38,12.10
2015,06,09,05,39,12.10
2015,06,09,05,40,12.10
2015,06,09,05,41,12.10
2015,06,09,05,42,12.10
2015,06,09,05,43,12.20
2015,06,09,05,44,12.20
2015,06,09,05,45,12.20
2015,06,09,05,46,12.20
2015,06,09,05,47,12.20
2015,06,09,05,48,12.20
2015,06,09,05,49,12.30
2015,06,09,05,50,12.20
2015,06,09,05,51,12.20
2015,06,09,05,52,12.20
2015,06,09,05,53,12.10
2015,06,09,05,54,12.10
2015,06,09,05,55,12.10
2015,06,09,05,56,12.00
2015,06,09,05,57,12.00
2015,06,09,05,58,12.00
2015,06,09,05,59,12.00
2015,06,09,06,00,12.10
2015,06,09,06,01,12.10
2015,06,09,06,02,12.10
2015,06,09,06,03,12.20
2015,06,09,06,04,12.20
2015,06,09,06,05,12.20
2015,06,09,06,06,12.20
2015,06,09,06,07,12.20
2015,06,09,06,08,12.20
2015,06,09,06,09,12.20
2015,06,09,06,10,12.20
2015,06,09,06,11,12.20
2015,06,09,06,12,12.10
2015,06,09,06,13,12.10
2015,06,09,06,14,12.10
2015,06,09,06,15,12.10
2015,06,09,06,16,12.10
2015,06,09,06,17,12.10
2015,06,09,06,18,12.10
2015,06,09,06,19,12.10
2015,06,09,06,20,12.00
2015,06,09,06,21,12.00
2015,06,09,06,22,12.00
2015,06,09,06,23,11.90
2015,06,09,06,24,11.90
2015,06,09,06,25,11.90
2015,06,09,06,26,11.90
2015,06,09,06,27,11.90
2015,06,09,06,28,11.80
2015,06,09,06,29,11.80
2015,06,09,06,30,11.80
2015,06,09,06,31,11.80
2015,06,09,06,32,11.80
2015,06,09,06,33,11.80
2015,06,09,06,34,11.80
2015,06,09,06,35,11.80
2015,06,09,06,36,11.80
2015,06,09,06,37,11.80
2015,06,09,06,38,11.80
2015,06,09,06,39,11.80
2015,06,09,06,40,11.80
2015,06,09,06,41,11.80
2015,06,09,06,42,11.80
2015,06,09,06,43,11.90
2015,06,09,06,44,11.90
2015,06,09,06,45,11.90
2015,06,09,06,46,12.00
2015,06,09,06,47,12.00
2015,06,09,06,48,12.00
2015,06,09,06,49,12.10
2015,06,09,06,50,12.10
2015,06,09,06,51,12.10
2015,06,09,06,52,12.20
2015,06,09,06,53,12.20
2015,06,09,06,54,12.20
2015,06,09,06,55,12.20
2015,06,09,06,56,12.30
2015,06,09,06,57,12.30
2015,06,09,06,58,12.30
2015,06,09,06,59,12.40
2015,06,09,07,00,12.40
2015,06,09,07,01,12.50
2015,06,09,07,02,12.60
2015,06,09,07,03,12.60
2015,06,09,07,04,12.60
2015,06,09,07,05,12.60
2015,06,09,07,06,12.70
2015,06,09,07,07,12.70
2015,06,09,07,08,12.70
2015,06,09,07,09,12.70
2015,06,09,07,10,12.70
2015,06,09,07,11,12.80
2015,06,09,07,12,12.80
2015,06,09,07,13,12.80
2015,06,09,07,14,12.90
2015,06,09,07,15,12.90
2015,06,09,07,16,13.00
2015,06,09,07,17,13.00
2015,06,09,07,18,13.10
2015,06,09,07,19,13.20
2015,06,09,07,20,13.20
2015,06,09,07,21,13.30
2015,06,09,07,22,13.30
2015,06,09,07,23,13.40
2015,06,09,07,24,13.40
2015,06,09,07,25,13.50
2015,06,09,07,26,13.70
2015,06,09,07,27,13.80
2015,06,09,07,28,14.00
2015,06,09,07,29,14.20
2015,06,09,07,30,14.40
2015,06,09,07,31,14.60
2015,06,09,07,32,14.80
2015,06,09,07,33,14.90
2015,06,09,07,34,15.00
2015,06,09,07,35,15.00
2015,06,09,07,36,15.10
2015,06,09,07,37,15.20
2015,06,09,07,38,15.30
2015,06,09,07,39,15.40
2015,06,09,07,40,15.50
2015,06,09,07,41,15.60
2015,06,09,07,42,15.70
2015,06,09,07,43,15.90
2015,06,09,07,44,16.00
2015,06,09,07,45,16.20
2015,06,09,07,46,16.30
2015,06,09,07,47,16.50
2015,06,09,07,48,16.60
2015,06,09,07,49,16.70
2015,06,09,07,50,16.90
2015,06,09,07,51,17.00
2015,06,09,07,52,17.10
2015,06,09,07,53,17.20
2015,06,09,07,54,17.20
2015,06,09,07,55,17.20
2015,06,09,07,56,17.20
2015,06,09,07,57,17.30
2015,06,09,07,58,17.30
2015,06,09,07,59,17.40
2015,06,09,08,00,17.40
2015,06,09,08,01,17.40
2015,06,09,08,02,17.40
2015,06,09,08,03,17.40
2015,06,09,08,04,17.50
2015,06,09,08,05,17.40
2015,06,09,08,06,17.40
2015,06,09,08,07,17.40
2015,06,09,08,08,17.40
2015,06,09,08,09,17.50
2015,06,09,08,10,17.50
2015,06,09,08,11,17.60
2015,06,09,08,12,17.60
2015,06,09,08,13,17.60
2015,06,09,08,14,17.60
2015,06,09,08,15,17.60
2015,06,09,08,16,17.60
2015,06,09,08,17,17.60
2015,06,09,08,18,17.60
2015,06,09,08,19,17.60
2015,06,09,08,20,17.60
2015,06,09,08,21,17.60
2015,06,09,08,22,17.50
2015,06,09,08,23,17.40
2015,06,09,08,24,17.40
2015,06,09,08,25,17.40
2015,06,09,08,26,17.40
2015,06,09,08,27,17.40
2015,06,09,08,28,17.50
2015,06,09,08,29,17.60
2015,06,09,08,30,17.60
2015,06,09,08,31,17.70
2015,06,09,08,32,17.80
2015,06,09,08,33,17.70
2015,06,09,08,34,17.60
2015,06,09,08,35,17.50
2015,06,09,08,36,17.50
2015,06,09,08,37,17.40
2015,06,09,08,38,17.40
2015,06,09,08,39,17.40
2015,06,09,08,40,17.40
2015,06,09,08,41,17.40
2015,06,09,08,42,17.40
2015,06,09,08,43,17.30
2015,06,09,08,44,17.20
2015,06,09,08,45,17.20
2015,06,09,08,46,17.10
2015,06,09,08,47,17.10
2015,06,09,08,48,17.10
2015,06,09,08,49,17.20
2015,06,09,08,50,17.20
2015,06,09,08,51,17.30
2015,06,09,08,52,17.30
2015,06,09,08,53,17.40
2015,06,09,08,54,17.40
2015,06,09,08,55,17.50
2015,06,09,08,56,17.50
2015,06,09,08,57,17.50
2015,06,09,08,58,17.50
2015,06,09,08,59,17.60
2015,06,09,09,00,17.60
2015,06,09,09,01,17.60
2015,06,09,09,02,17.50
2015,06,09,09,03,17.40
2015,06,09,09,04,17.40
2015,06,09,09,05,17.40
2015,06,09,09,06,17.40
2015,06,09,09,07,17.40
2015,06,09,09,08,17.50
2015,06,09,09,09,17.60
2015,06,09,09,10,17.60
2015,06,09,09,11,17.70
2015,06,09,09,12,17.70
2015,06,09,09,13,17.70
2015,06,09,09,14,17.70
2015,06,09,09,15,17.70
2015,06,09,09,16,17.60
2015,06,09,09,17,17.60
2015,06,09,09,18,17.60
2015,06,09,09,19,17.60
2015,06,09,09,20,17.70
2015,06,09,09,21,17.70
2015,06,09,09,22,17.80
2015,06,09,09,23,17.90
2015,06,09,09,24,17.90
2015,06,09,09,25,17.80
2015,06,09,09,26,17.60
2015,06,09,09,27,17.40
2015,06,09,09,28,17.20
2015,06,09,09,29,17.00
2015,06,09,09,30,16.80
2015,06,09,09,31,16.60
2015,06,09,09,32,16.50
2015,06,09,09,33,16.40
2015,06,09,09,34,16.30
2015,06,09,09,35,16.30
2015,06,09,09,36,16.20
2015,06,09,09,37,16.20
2015,06,09,09,38,16.20
2015,06,09,09,39,16.20
2015,06,09,09,40,16.30
2015,06,09,09,41,16.30
2015,06,09,09,42,16.40
2015,06,09,09,43,16.60
2015,06,09,09,44,16.70
2015,06,09,09,45,16.90
2015,06,09,09,46,16.90
2015,06,09,09,47,16.90
2015,06,09,09,48,17.00
2015,06,09,09,49,17.00
2015,06,09,09,50,17.00
2015,06,09,09,51,17.10
2015,06,09,09,52,17.10
2015,06,09,09,53,17.20
2015,06,09,09,54,17.30
2015,06,09,09,55,17.30
2015,06,09,09,56,17.40
2015,06,09,09,57,17.40
2015,06,09,09,58,17.40
2015,06,09,09,59,17.40
2015,06,09,10,00,17.30
2015,06,09,10,01,17.20
2015,06,09,10,02,17.00
2015,06,09,10,03,16.90
2015,06,09,10,04,16.70
2015,06,09,10,05,16.60
2015,06,09,10,06,16.50
2015,06,09,10,07,16.50
2015,06,09,10,08,16.50
2015,06,09,10,09,16.60
2015,06,09,10,10,16.70
2015,06,09,10,11,16.80
2015,06,09,10,12,16.90
2015,06,09,10,13,16.90
2015,06,09,10,14,16.90
2015,06,09,10,15,16.80
2015,06,09,10,16,16.60
2015,06,09,10,17,16.50
2015,06,09,10,18,16.40
2015,06,09,10,19,16.30
2015,06,09,10,20,16.30
2015,06,09,10,21,16.20
2015,06,09,10,22,16.30
2015,06,09,10,23,16.40
2015,06,09,10,24,16.60
2015,06,09,10,25,16.70
2015,06,09,10,26,16.80
2015,06,09,10,27,16.90
2015,06,09,10,28,16.90
2015,06,09,10,29,16.90
2015,06,09,10,30,16.80
2015,06,09,10,31,16.70
2015,06,09,10,32,16.50
2015,06,09,10,33,16.40
2015,06,09,10,34,16.30
2015,06,09,10,35,16.30
2015,06,09,10,36,16.10
2015,06,09,10,37,15.90
2015,06,09,10,38,15.80
2015,06,09,10,39,15.70
2015,06,09,10,40,15.80
2015,06,09,10,41,15.80
2015,06,09,10,42,15.90
2015,06,09,10,43,15.90
2015,06,09,10,44,16.00
2015,06,09,10,45,16.10
2015,06,09,10,46,16.20
2015,06,09,10,47,16.30
2015,06,09,10,48,16.40
2015,06,09,10,49,16.50
2015,06,09,10,50,16.60
2015,06,09,10,51,16.70
2015,06,09,10,52,16.70
2015,06,09,10,53,16.70
2015,06,09,10,54,16.70
2015,06,09,10,55,16.70
2015,06,09,10,56,16.70
2015,06,09,10,57,16.70
2015,06,09,10,58,16.70
2015,06,09,10,59,16.70
2015,06,09,11,00,16.70
2015,06,09,11,01,16.60
2015,06,09,11,02,16.60
2015,06,09,11,03,16.50
2015,06,09,11,04,16.60
2015,06,09,11,05,16.70
2015,06,09,11,06,16.60
2015,06,09,11,07,16.50
2015,06,09,11,08,16.50
2015,06,09,11,09,16.60
2015,06,09,11,10,16.60
2015,06,09,11,11,16.70
2015,06,09,11,12,16.70
2015,06,09,11,13,16.80
2015,06,09,11,14,16.80
2015,06,09,11,15,16.90
2015,06,09,11,16,16.90
2015,06,09,11,17,16.80
2015,06,09,11,18,16.80
2015,06,09,11,19,16.80
2015,06,09,11,20,17.00
2015,06,09,11,21,17.00
2015,06,09,11,22,16.90
2015,06,09,11,23,17.00
2015,06,09,11,24,17.00
2015,06,09,11,25,16.90
2015,06,09,11,26,16.80
2015,06,09,11,27,16.80
2015,06,09,11,28,16.70
2015,06,09,11,29,16.70
2015,06,09,11,30,16.70
2015,06,09,11,31,16.70
2015,06,09,11,32,16.70
2015,06,09,11,33,16.70
2015,06,09,11,34,16.70
2015,06,09,11,35,16.70
2015,06,09,11,36,16.60
2015,06,09,11,37,16.60
2015,06,09,11,38,16.60
2015,06,09,11,39,16.70
2015,06,09,11,40,16.70
2015,06,09,11,41,16.70
2015,06,09,11,42,16.70
2015,06,09,11,43,16.70
2015,06,09,11,44,16.80
2015,06,09,11,45,16.90
2015,06,09,11,46,17.10
2015,06,09,11,47,17.30
2015,06,09,11,48,17.60
2015,06,09,11,49,17.80
2015,06,09,11,50,17.90
2015,06,09,11,51,17.80
2015,06,09,11,52,17.60
2015,06,09,11,53,17.40
2015,06,09,11,54,17.20
2015,06,09,11,55,17.10
2015,06,09,11,56,17.10
2015,06,09,11,57,17.20
2015,06,09,11,58,17.30
2015,06,09,11,59,17.40
2015,06,09,12,00,17.50
2015,06,09,12,01,17.50
2015,06,09,12,02,17.50
2015,06,09,12,03,17.50
2015,06,09,12,04,17.30
2015,06,09,12,05,17.20
2015,06,09,12,06,17.20
2015,06,09,12,07,17.30
2015,06,09,12,08,17.40
2015,06,09,12,09,17.40
2015,06,09,12,10,17.40
2015,06,09,12,11,17.20
2015,06,09,12,12,17.10
2015,06,09,12,13,17.10
2015,06,09,12,14,17.00
2015,06,09,12,15,17.00
2015,06,09,12,16,17.00
2015,06,09,12,17,17.00
2015,06,09,12,18,17.10
2015,06,09,12,19,17.10
2015,06,09,12,20,17.30
2015,06,09,12,21,17.40
2015,06,09,12,22,17.50
2015,06,09,12,23,17.70
2015,06,09,12,24,17.80
2015,06,09,12,25,17.90
2015,06,09,12,26,17.90
2015,06,09,12,27,18.00
2015,06,09,12,28,18.00
2015,06,09,12,29,18.00
2015,06,09,12,30,17.90
2015,06,09,12,31,17.80
2015,06,09,12,32,17.80
2015,06,09,12,33,17.80
2015,06,09,12,34,17.90
2015,06,09,12,35,17.90
2015,06,09,12,36,17.90
2015,06,09,12,37,17.80
2015,06,09,12,38,17.70
2015,06,09,12,39,17.60
2015,06,09,12,40,17.60
2015,06,09,12,41,17.50
2015,06,09,12,42,17.40
2015,06,09,12,43,17.30
2015,06,09,12,44,17.20
2015,06,09,12,45,17.10
2015,06,09,12,46,17.00
2015,06,09,12,47,16.90
2015,06,09,12,48,16.90
2015,06,09,12,49,17.00
2015,06,09,12,50,17.00
2015,06,09,12,51,17.00
2015,06,09,12,52,17.10
2015,06,09,12,53,17.10
2015,06,09,12,54,17.30
2015,06,09,12,55,17.30
2015,06,09,12,56,17.30
2015,06,09,12,57,17.40
2015,06,09,12,58,17.60
2015,06,09,12,59,17.60
2015,06,09,13,00,17.70
2015,06,09,13,01,17.70
2015,06,09,13,02,17.70
2015,06,09,13,03,17.90
2015,06,09,13,04,18.00
2015,06,09,13,05,17.90
2015,06,09,13,06,17.70
2015,06,09,13,07,17.60
2015,06,09,13,08,17.60
2015,06,09,13,09,17.50
2015,06,09,13,10,17.40
2015,06,09,13,11,17.40
2015,06,09,13,12,17.40
2015,06,09,13,13,17.40
2015,06,09,13,14,17.40
2015,06,09,13,15,17.30
2015,06,09,13,16,17.40
2015,06,09,13,17,17.50
2015,06,09,13,18,17.50
2015,06,09,13,19,17.40
2015,06,09,13,20,17.20
2015,06,09,13,21,17.20
2015,06,09,13,22,17.30
2015,06,09,13,23,17.50
2015,06,09,13,24,17.70
2015,06,09,13,25,17.90
2015,06,09,13,26,18.10
2015,06,09,13,27,18.10
2015,06,09,13,28,18.00
2015,06,09,13,29,18.10
2015,06,09,13,30,18.20
2015,06,09,13,31,18.30
2015,06,09,13,32,18.10
2015,06,09,13,33,17.90
2015,06,09,13,34,17.90
2015,06,09,13,35,17.90
2015,06,09,13,36,17.80
2015,06,09,13,37,17.70
2015,06,09,13,38,17.60
2015,06,09,13,39,17.50
2015,06,09,13,40,17.50
2015,06,09,13,41,17.40
2015,06,09,13,42,17.50
2015,06,09,13,43,17.50
2015,06,09,13,44,17.60
2015,06,09,13,45,17.70
2015,06,09,13,46,17.90
2015,06,09,13,47,18.10
2015,06,09,13,48,18.20
2015,06,09,13,49,18.30
2015,06,09,13,50,18.30
2015,06,09,13,51,18.30
2015,06,09,13,52,18.40
2015,06,09,13,53,18.60
2015,06,09,13,54,18.70
2015,06,09,13,55,18.80
2015,06,09,13,56,18.90
2015,06,09,13,57,18.90
2015,06,09,13,58,18.80
2015,06,09,13,59,18.70
2015,06,09,14,00,18.60
2015,06,09,14,01,18.40
2015,06,09,14,02,18.30
2015,06,09,14,03,18.20
2015,06,09,14,04,18.20
2015,06,09,14,05,18.00
2015,06,09,14,06,17.90
2015,06,09,14,07,17.90
2015,06,09,14,08,18.10
2015,06,09,14,09,18.30
2015,06,09,14,10,18.40
2015,06,09,14,11,18.50
2015,06,09,14,12,18.60
2015,06,09,14,13,18.60
2015,06,09,14,14,18.60
2015,06,09,14,15,18.60
2015,06,09,14,16,18.60
2015,06,09,14,17,18.60
2015,06,09,14,18,18.60
2015,06,09,14,19,18.60
2015,06,09,14,20,18.70
2015,06,09,14,21,18.60
2015,06,09,14,22,18.60
2015,06,09,14,23,18.70
2015,06,09,14,24,18.70
2015,06,09,14,25,18.80
2015,06,09,14,26,18.90
2015,06,09,14,27,19.00
2015,06,09,14,28,19.00
2015,06,09,14,29,19.10
2015,06,09,14,30,19.10
2015,06,09,14,31,19.10
2015,06,09,14,32,19.20
2015,06,09,14,33,19.20
2015,06,09,14,34,19.30
2015,06,09,14,35,19.40
2015,06,09,14,36,19.40
2015,06,09,14,37,19.40
2015,06,09,14,38,19.40
2015,06,09,14,39,19.30
2015,06,09,14,40,19.30
2015,06,09,14,41,19.30
2015,06,09,14,42,19.30
2015,06,09,14,43,19.30
2015,06,09,14,44,19.30
2015,06,09,14,45,19.30
2015,06,09,14,46,19.30
2015,06,09,14,47,19.30
2015,06,09,14,48,19.30
2015,06,09,14,49,19.30
2015,06,09,14,50,19.40
2015,06,09,14,51,19.50
2015,06,09,14,52,19.60
2015,06,09,14,53,19.70
2015,06,09,14,54,19.70
2015,06,09,14,55,19.50
2015,06,09,14,56,19.40
2015,06,09,14,57,19.30
2015,06,09,14,58,19.20
2015,06,09,14,59,19.10
2015,06,09,15,00,19.00
2015,06,09,15,01,19.00
2015,06,09,15,02,19.10
2015,06,09,15,03,19.20
2015,06,09,15,04,19.40
2015,06,09,15,05,19.50
2015,06,09,15,06,19.60
2015,06,09,15,07,19.70
2015,06,09,15,08,19.80
2015,06,09,15,09,19.90
2015,06,09,15,10,19.90
2015,06,09,15,11,20.00
2015,06,09,15,12,20.00
2015,06,09,15,13,19.90
2015,06,09,15,14,19.80
2015,06,09,15,15,19.80
2015,06,09,15,16,19.70
2015,06,09,15,17,19.70
2015,06,09,15,18,19.50
2015,06,09,15,19,19.30
2015,06,09,15,20,19.20
2015,06,09,15,21,19.10
2015,06,09,15,22,19.00
2015,06,09,15,23,18.90
2015,06,09,15,24,18.90
2015,06,09,15,25,19.00
2015,06,09,15,26,19.20
2015,06,09,15,27,19.30
2015,06,09,15,28,19.50
2015,06,09,15,29,19.50
2015,06,09,15,30,19.50
2015,06,09,15,31,19.60
2015,06,09,15,32,19.60
2015,06,09,15,33,19.60
2015,06,09,15,34,19.60
2015,06,09,15,35,19.60
2015,06,09,15,36,19.50
2015,06,09,15,37,19.50
2015,06,09,15,38,19.50
2015,06,09,15,39,19.50
2015,06,09,15,40,19.50
2015,06,09,15,41,19.40
2015,06,09,15,42,19.30
2015,06,09,15,43,19.30
2015,06,09,15,44,19.40
2015,06,09,15,45,19.40
2015,06,09,15,46,19.40
2015,06,09,15,47,19.20
2015,06,09,15,48,19.20
2015,06,09,15,49,19.20
2015,06,09,15,50,19.30
2015,06,09,15,51,19.30
2015,06,09,15,52,19.20
2015,06,09,15,53,19.20
2015,06,09,15,54,19.20
2015,06,09,15,55,19.20
2015,06,09,15,56,19.40
2015,06,09,15,57,19.50
2015,06,09,15,58,19.60
2015,06,09,15,59,19.70
2015,06,09,16,00,19.70
2015,06,09,16,01,19.60
2015,06,09,16,02,19.50
2015,06,09,16,03,19.50
2015,06,09,16,04,19.20
2015,06,09,16,05,19.00
2015,06,09,16,06,18.90
2015,06,09,16,07,18.90
2015,06,09,16,08,18.90
2015,06,09,16,09,18.90
2015,06,09,16,10,18.90
2015,06,09,16,11,18.90
2015,06,09,16,12,18.90
2015,06,09,16,13,18.90
2015,06,09,16,14,18.90
2015,06,09,16,15,18.90
2015,06,09,16,16,19.00
2015,06,09,16,17,19.00
2015,06,09,16,18,19.00
2015,06,09,16,19,19.10
2015,06,09,16,20,19.20
2015,06,09,16,21,19.30
2015,06,09,16,22,19.30
2015,06,09,16,23,19.30
2015,06,09,16,24,19.30
2015,06,09,16,25,19.30
2015,06,09,16,26,19.30
2015,06,09,16,27,19.30
2015,06,09,16,28,19.30
2015,06,09,16,29,19.30
2015,06,09,16,30,19.20
2015,06,09,16,31,19.30
2015,06,09,16,32,19.30
2015,06,09,16,33,19.30
2015,06,09,16,34,19.30
2015,06,09,16,35,19.30
2015,06,09,16,36,19.20
2015,06,09,16,37,19.10
2015,06,09,16,38,19.10
2015,06,09,16,39,19.00
2015,06,09,16,40,19.00
2015,06,09,16,41,19.00
2015,06,09,16,42,19.00
2015,06,09,16,43,18.80
2015,06,09,16,44,18.70
2015,06,09,16,45,18.70
2015,06,09,16,46,18.60
2015,06,09,16,47,18.50
2015,06,09,16,48,18.40
2015,06,09,16,49,18.40
2015,06,09,16,50,18.40
2015,06,09,16,51,18.30
2015,06,09,16,52,18.30
2015,06,09,16,53,18.30
2015,06,09,16,54,18.20
2015,06,09,16,55,18.00
2015,06,09,16,56,17.90
2015,06,09,16,57,17.80
2015,06,09,16,58,17.60
2015,06,09,16,59,17.50
2015,06,09,17,00,17.40
2015,06,09,17,01,17.30
2015,06,09,17,02,17.20
2015,06,09,17,03,17.20
2015,06,09,17,04,17.20
2015,06,09,17,05,17.20
2015,06,09,17,06,17.20
2015,06,09,17,07,17.20
2015,06,09,17,08,17.10
2015,06,09,17,09,17.10
2015,06,09,17,10,17.00
2015,06,09,17,11,16.90
2015,06,09,17,12,16.80
2015,06,09,17,13,16.60
2015,06,09,17,14,16.60
2015,06,09,17,15,16.60
2015,06,09,17,16,16.60
2015,06,09,17,17,16.60
2015,06,09,17,18,16.50
2015,06,09,17,19,16.40